EJU28EG LFBO-LIMC

Flight info

Callsign EJU28EG
Flight time 1h 2m
Altitude 36000
Route MEN7A/14L MEN DCT NINUN DCT LATAM DCT ROMAM/N0434F370 DCT ETIDO DCT NEDRU DCT RILIP/N0385F270 DCT EMMEF/N0374F250 DCT LAPRI/N0369F240 DCT MOGBO/N0374F250 DCT TOP M135 ASTIG
Aircraft A320/M-SDE2E3FGHIJ1RWXYZ/LB1

Departure

Time 2026-04-30 17:55
Airport Toulouse-Blagnac Airport (LFBO)

Arrival

Time 2026-04-30 18:58
Airport Milan Malpensa International Airport (LIMC)
Time Latitude Longitude Altitude Speed Heading
2026-04-30 17:39 43.63272 1.36920 495 ft 0 kts 144°
2026-04-30 17:44 43.63277 1.36915 495 ft 2 kts 144°
2026-04-30 17:44 43.63318 1.36873 487 ft 2 kts 144°
2026-04-30 17:46 43.63381 1.36829 485 ft 0 kts 225°
2026-04-30 17:50 43.63360 1.36812 486 ft 6 kts 209°
2026-04-30 17:51 43.63255 1.36590 495 ft 11 kts 286°
2026-04-30 17:52 43.63478 1.36342 490 ft 17 kts 323°
2026-04-30 17:53 43.63783 1.35874 488 ft 10 kts 234°
2026-04-30 17:54 43.63696 1.35805 486 ft 0 kts 144°
2026-04-30 17:55 43.61371 1.38132 1621 ft 142 kts 144°
2026-04-30 17:56 43.57607 1.41802 3282 ft 208 kts 142°
2026-04-30 17:57 43.54192 1.46642 5038 ft 258 kts 98°
2026-04-30 17:58 43.56906 1.52975 7221 ft 280 kts 41°
2026-04-30 17:59 43.62934 1.60312 10417 ft 300 kts 44°
2026-04-30 18:00 43.69288 1.69134 12487 ft 349 kts 45°
2026-04-30 18:00 43.75125 1.75482 14487 ft 363 kts 36°
2026-04-30 18:01 43.79224 1.79673 15732 ft 370 kts 36°
2026-04-30 18:02 43.85394 1.86356 17572 ft 381 kts 47°
2026-04-30 18:02 43.89647 1.95776 19265 ft 390 kts 62°
2026-04-30 18:03 43.94104 2.05356 20783 ft 401 kts 49°
2026-04-30 18:04 43.99604 2.14282 22259 ft 411 kts 49°
2026-04-30 18:05 44.07079 2.26561 24132 ft 421 kts 49°
2026-04-30 18:06 44.14752 2.39183 25646 ft 432 kts 49°
2026-04-30 18:07 44.22596 2.52162 27095 ft 443 kts 49°
2026-04-30 18:08 44.28583 2.62095 28099 ft 452 kts 49°
2026-04-30 18:09 44.36754 2.75700 29497 ft 462 kts 49°
2026-04-30 18:10 44.45068 2.89632 30671 ft 471 kts 49°
2026-04-30 18:11 44.53498 3.03822 31805 ft 475 kts 48°
2026-04-30 18:11 44.59770 3.14433 33083 ft 467 kts 50°
2026-04-30 18:12 44.64831 3.26184 33844 ft 474 kts 59°
2026-04-30 18:13 44.68098 3.34316 34110 ft 481 kts 59°
2026-04-30 18:13 44.72507 3.45333 34436 ft 490 kts 59°
2026-04-30 18:14 44.76393 3.55124 34765 ft 495 kts 59°
2026-04-30 18:15 44.81443 3.67872 35512 ft 494 kts 59°
2026-04-30 18:15 44.86449 3.80528 36165 ft 492 kts 59°
2026-04-30 18:16 44.93022 3.97298 36216 ft 489 kts 60°
2026-04-30 18:17 44.96293 4.05661 36216 ft 486 kts 60°
2026-04-30 18:18 45.01174 4.18194 36217 ft 486 kts 60°
2026-04-30 18:18 45.03563 4.27085 36219 ft 486 kts 79°
2026-04-30 18:19 45.04373 4.36560 36223 ft 485 kts 83°
2026-04-30 18:19 45.05104 4.46047 36221 ft 485 kts 83°
2026-04-30 18:20 45.05838 4.55526 36216 ft 484 kts 83°
2026-04-30 18:20 45.06551 4.64988 36207 ft 484 kts 84°
2026-04-30 18:21 45.07244 4.74455 36211 ft 483 kts 84°
2026-04-30 18:21 45.07934 4.83911 36208 ft 483 kts 84°
2026-04-30 18:22 45.08626 4.93346 36209 ft 482 kts 84°
2026-04-30 18:22 45.09640 5.07433 36206 ft 481 kts 85°
2026-04-30 18:23 45.10206 5.16872 36181 ft 480 kts 91°
2026-04-30 18:23 45.09839 5.26306 36192 ft 479 kts 95°
2026-04-30 18:24 45.09196 5.40415 36199 ft 479 kts 94°
2026-04-30 18:25 45.08801 5.49837 36211 ft 479 kts 93°
2026-04-30 18:25 45.08302 5.63939 36210 ft 478 kts 93°
2026-04-30 18:26 45.07753 5.78023 36209 ft 478 kts 93°
2026-04-30 18:27 45.07002 5.92106 36200 ft 479 kts 95°
2026-04-30 18:28 45.06325 6.01336 36199 ft 479 kts 96°
2026-04-30 18:28 45.05427 6.13816 36211 ft 479 kts 95°
2026-04-30 18:29 45.04140 6.32601 36213 ft 481 kts 95°
2026-04-30 18:30 45.02796 6.51418 36228 ft 481 kts 95°
2026-04-30 18:31 45.02511 6.65512 35940 ft 480 kts 74°
2026-04-30 18:32 45.05313 6.73906 34534 ft 473 kts 57°
2026-04-30 18:32 45.06981 6.77924 33666 ft 474 kts 58°
2026-04-30 18:32 45.10305 6.86006 31707 ft 477 kts 58°
2026-04-30 18:33 45.11970 6.90088 30782 ft 479 kts 58°
2026-04-30 18:33 45.15175 6.98032 30417 ft 448 kts 58°
2026-04-30 18:33 45.16690 7.01805 30264 ft 433 kts 58°
2026-04-30 18:34 45.18164 7.05474 29979 ft 422 kts 58°
2026-04-30 18:34 45.21011 7.12517 29326 ft 403 kts 58°
2026-04-30 18:34 45.22394 7.15947 28875 ft 397 kts 58°
2026-04-30 18:35 45.23753 7.19319 28444 ft 392 kts 58°
2026-04-30 18:35 45.25095 7.22650 28025 ft 386 kts 58°
2026-04-30 18:35 45.26403 7.25898 27588 ft 381 kts 58°
2026-04-30 18:36 45.28992 7.32351 26727 ft 373 kts 59°
2026-04-30 18:36 45.30265 7.35540 26307 ft 369 kts 59°
2026-04-30 18:36 45.32776 7.41834 25421 ft 363 kts 59°
2026-04-30 18:37 45.34016 7.44948 24986 ft 361 kts 59°
2026-04-30 18:37 45.35244 7.48037 24535 ft 358 kts 59°
2026-04-30 18:37 45.36465 7.51115 24086 ft 357 kts 59°
2026-04-30 18:37 45.37682 7.54182 23600 ft 355 kts 59°
2026-04-30 18:38 45.38892 7.57231 23132 ft 352 kts 59°
2026-04-30 18:38 45.40093 7.60256 22695 ft 349 kts 59°
2026-04-30 18:38 45.41286 7.63252 22256 ft 347 kts 59°
2026-04-30 18:38 45.42467 7.66223 21832 ft 344 kts 59°
2026-04-30 18:39 45.43639 7.69176 21413 ft 341 kts 59°
2026-04-30 18:39 45.44798 7.72107 20997 ft 339 kts 59°
2026-04-30 18:39 45.45946 7.75025 20575 ft 337 kts 59°
2026-04-30 18:39 45.47085 7.77929 20157 ft 335 kts 59°
2026-04-30 18:40 45.48218 7.80822 19752 ft 334 kts 59°
2026-04-30 18:40 45.49348 7.83701 19342 ft 332 kts 59°
2026-04-30 18:40 45.50474 7.86565 18936 ft 331 kts 59°
2026-04-30 18:40 45.51600 7.89428 18530 ft 330 kts 59°
2026-04-30 18:41 45.52718 7.92277 18092 ft 329 kts 59°
2026-04-30 18:41 45.53827 7.95108 17699 ft 326 kts 59°
2026-04-30 18:41 45.54929 7.97926 17299 ft 324 kts 59°
2026-04-30 18:41 45.56023 8.00730 16921 ft 323 kts 59°
2026-04-30 18:42 45.57107 8.03527 16604 ft 319 kts 59°
2026-04-30 18:42 45.59222 8.09022 15955 ft 315 kts 59°
2026-04-30 18:42 45.60277 8.11768 15560 ft 316 kts 59°
2026-04-30 18:45 45.68257 8.32315 10726 ft 303 kts 60°
2026-04-30 18:46 45.69189 8.34723 10099 ft 301 kts 60°
2026-04-30 18:46 45.70177 8.37283 9673 ft 287 kts 60°
2026-04-30 18:47 45.71126 8.39757 9145 ft 280 kts 60°
2026-04-30 18:47 45.72022 8.42196 8533 ft 275 kts 67°
2026-04-30 18:47 45.72413 8.44844 7906 ft 273 kts 90°
2026-04-30 18:47 45.72040 8.47488 7281 ft 273 kts 114°
2026-04-30 18:48 45.70949 8.49677 6646 ft 271 kts 138°
2026-04-30 18:48 45.69346 8.51044 5985 ft 269 kts 162°
2026-04-30 18:48 45.67543 8.51704 5320 ft 266 kts 161°
2026-04-30 18:48 45.65890 8.52834 4683 ft 262 kts 149°
2026-04-30 18:49 45.64387 8.54276 4037 ft 259 kts 144°
2026-04-30 18:49 45.62939 8.55791 3411 ft 257 kts 144°
2026-04-30 18:49 45.61496 8.57292 2723 ft 256 kts 144°
2026-04-30 18:49 45.60042 8.58751 2151 ft 255 kts 146°
2026-04-30 18:50 45.58565 8.60183 2009 ft 258 kts 147°
2026-04-30 18:50 45.57075 8.61595 2076 ft 259 kts 147°
2026-04-30 18:50 45.55568 8.62998 2725 ft 259 kts 147°
2026-04-30 18:50 45.54051 8.64397 2949 ft 259 kts 147°
2026-04-30 18:51 45.52535 8.65786 3006 ft 258 kts 147°
2026-04-30 18:51 45.51024 8.67165 3010 ft 258 kts 147°
2026-04-30 18:51 45.49590 8.68472 3005 ft 230 kts 147°
2026-04-30 18:51 45.48319 8.69630 3007 ft 208 kts 147°
2026-04-30 18:52 45.47157 8.70690 3021 ft 186 kts 147°
2026-04-30 18:52 45.46155 8.71605 3033 ft 158 kts 147°
2026-04-30 18:52 45.45265 8.72421 3011 ft 147 kts 147°
2026-04-30 18:52 45.44577 8.73455 3009 ft 144 kts 119°
2026-04-30 18:53 45.44313 8.74814 3006 ft 144 kts 92°
2026-04-30 18:53 45.44519 8.76195 3008 ft 145 kts 65°
2026-04-30 18:53 45.45158 8.77293 3010 ft 146 kts 37°
2026-04-30 18:53 45.46091 8.77845 3010 ft 147 kts
2026-04-30 18:54 45.47109 8.77733 3012 ft 148 kts 349°
2026-04-30 18:54 45.48118 8.77456 3011 ft 148 kts 349°
2026-04-30 18:54 45.49127 8.77178 3011 ft 148 kts 349°
2026-04-30 18:54 45.50138 8.76900 2930 ft 148 kts 349°
2026-04-30 18:55 45.51145 8.76623 2777 ft 147 kts 349°
2026-04-30 18:55 45.53151 8.76071 2411 ft 146 kts 349°
2026-04-30 18:55 45.54147 8.75797 2216 ft 146 kts 349°
2026-04-30 18:56 45.56131 8.75251 1829 ft 145 kts 349°
2026-04-30 18:56 45.57105 8.74982 1634 ft 144 kts 349°
2026-04-30 18:56 45.58089 8.74711 1438 ft 143 kts 349°
2026-04-30 18:57 45.60023 8.74178 1058 ft 141 kts 349°
2026-04-30 18:57 45.60981 8.73914 872 ft 140 kts 349°
2026-04-30 18:57 45.61930 8.73652 714 ft 134 kts 349°
2026-04-30 18:58 45.62340 8.73539 724 ft 0 kts 349°